GLOBALSTAR M092

Last updated on Mon Sep 21 2026 00:03:12 GMT+0000 (Coordinated Universal Time)

1 38043U 11080D 26263.35312093 -.00000106 00000+0 -14514-4 0 9990 2 38043 52.0069 135.2283 0000760 76.5273 95.0376 12.62266082680064
UTC large
Height (km)
Speed (km/s)
/
Latitude / Longitude
Inclination (degrees)
Orbital Period (minutes)
Azimuth
Elevation
Range (km)
Doppler Factor

Next 0 passes for location: London (51.5072 / 0.1276)

No passes found over London.
GLOBALSTAR M092